This is the latest recevied weather packets stored in our database for station/object F4CYQ-10. If no packets are shown the sender has not sent any weather packets the latest 10 day(s).
| Time | Temp. | Humidity | Pressure | Rain* | Wind** | Luminosity | Snow |
|---|---|---|---|---|---|---|---|
| 1777596512 | 21.67° C | 55% | 1021.1 hPa | - | - | - | - |
| 1777595611 | 21.67° C | 55% | 1021.1 hPa | - | - | - | - |
| 1777594941 | 20.56° C | 56% | 1021.2 hPa | - | - | - | - |
| 1777594041 | 20.56° C | 55% | 1021.1 hPa | - | - | - | - |
| 1777593209 | 21.11° C | 56% | 1021 hPa | - | - | - | - |
| 1777593140 | 21.11° C | 56% | 1021 hPa | - | - | - | - |
| 1777593010 | 20.56° C | 56% | 1021 hPa | - | - | - | - |
| 1777592109 | 20.56° C | 57% | 1021.1 hPa | - | - | - | - |
| 1777591208 | 20.56° C | 56% | 1021.1 hPa | - | - | - | - |
| 1777590307 | 21.67° C | 56% | 1021 hPa | - | - | - | - |
| 1777589909 | 21.11° C | 55% | 1021.2 hPa | - | - | - | - |
| 1777589008 | 20.56° C | 55% | 1021.1 hPa | - | - | - | - |
| 1777588107 | 20.56° C | 55% | 1021.1 hPa | - | - | - | - |
| 1777587206 | 21.67° C | 55% | 1021.2 hPa | - | - | - | - |
| 1777586972 | 20.56° C | 55% | 1021.2 hPa | - | - | - | - |
| 1777586071 | 21.11° C | 55% | 1021.2 hPa | - | - | - | - |
| 1777585170 | 20.56° C | 55% | 1021.2 hPa | - | - | - | - |
| 1777584269 | 21.67° C | 55% | 1021.1 hPa | - | - | - | - |
| 1777583884 | 20.56° C | 56% | 1021.1 hPa | - | - | - | - |
| 1777582983 | 21.11° C | 55% | 1021.1 hPa | - | - | - | - |
| 1777582082 | 21.11° C | 55% | 1021.1 hPa | - | - | - | - |
| 1777581180 | 22.22° C | 54% | 1020.8 hPa | - | - | - | - |
| 1777581044 | 21.11° C | 54% | 1020.8 hPa | - | - | - | - |
| 1777580143 | 21.67° C | 54% | 1020.6 hPa | - | - | - | - |
| 1777579242 | 21.67° C | 53% | 1020.6 hPa | - | - | - | - |
* Rain since midnight (hover to see other rain measurements)
** Current wind speed in m/s (hover to see current wind gust speed)